Location: Dana
(41.8364°N, 106.7042°W)
Time: 20:48:14
(UTC+00:00)

Injun/Solrad 3 - Pass Details

Date: 15 May 2026
Orbit: 867 x 989 km, 66.8° (Epoch: 6 June)

Event Time Altitude Azimuth Distance (km) Brightness Sun altitude
Rises 09:02:52 0° 317° (NW) 3,694 11.2 -23.3°
Reaches altitude 10° 09:05:59 10° 303° (WNW) 2,749 10.4 -22.9°
Enters shadow 09:09:33 21° 271° (W) 2,052 9.4 -22.6°
Maximum altitude 09:10:46 22° 255° (WSW) 1,993 - -22.5°
Drops below altitude 10° 09:15:32 10° 207° (SSW) 2,734 - -22.0°
Sets 09:18:39 0° 193° (SSW) 3,668 - -21.7°
